Погода в Сане-Фелиу-де-Гишольсе

Испания     41°46′49″N   3°01′37″E
темп.,
°C
ветер,
м/с
пор.,
м/с
влажн.,
%
обл.,
%
осадки,
мм/ч
давл.,
гПа
погр.,
м
28 октября, чт
чт2823:00+13ссз349214 0.0 1022116
02:00+12с348922 0.0 1021134
05:00+12ссз34897 0.0 102099
08:00+12ссз34890 0.6 101993
11:00+17ссз23690 0.0 1019355
14:00+19ююв32590 0.0 1018913
17:00+18ю33650 0.0 1016522
20:00+15ююз23830 0.0 1017222
29 октября, пт
пт2923:00+15юз33840 0.0 1017295
02:00+14юз35864 0.0 1015358
05:00+14юз358699 0.0 1014289
08:00+15юз3585100 0.1 1014389
11:00+18ююз697696 0.1 1014807
14:00+20ююз71066100 0.7 1012910
17:00+19ююз71070100 0.1 1011544
20:00+19юз61173100 0.1 1011394
30 октября, сб
сб3023:00+17юз61182100 0.0 1012323
02:00+18ююз5975100 0.0 1011283
05:00+18юз51169100 0.0 1009468
08:00+18юз101775100 0.3 10101252
11:00+17юз101591100 1.1 10101223
14:00+19юз101481100 2.3 1009988
17:00+20юз81476100 0.0 1009783
20:00+18зюз6985100 0.0 1010241
31 октября, вс
вс3123:00+17з238692 0.0 101149
02:00+17зсз118081 0.0 101038
04:00+18ююз3582100 0.0 1009112
07:00+18ююз41197100 1.2 1008624
10:00+18сз2389100 0.8 1007113
13:00+21ююз1272100 0.8 1007320
16:00+19вюв3282100 0.0 1008234
19:00+17всв339074 0.0 100999
31 октября, вс
вс3122:00+16с1189100 0.0 101042
01:00+15ссз119080 0.0 100944
04:00+15зсз229120 0.0 100863
07:00+15с3391100 0.0 100788
10:00+17св4790100 0.4 1009337
13:00+14ссв61089100 5.2 1010623
16:00+13с3692100 1.5 1011359
19:00+13с2287100 2.6 1013178